Location: Trento
(46.0670°N, 11.1330°E)
Time: 21:27:26
(UTC+02:00)

ISS - Visible Passes

Search period start: 28 May 2023 00:00
Search period end: 07 June 2023 00:00
Orbit: 412 x 419 km, 51.6° (Epoch: 28 May)

Date Brightness Start Highest point End Pass type
(mag) Time Alt. Az. Time Alt. Az. Time Alt. Az.
28 May -2.0 22:49:13 10° W 22:51:47 20° SW 22:52:34 19° SSW visible
29 May -2.6 22:00:17 10° WNW 22:03:19 32° SW 22:05:46 14° SSE visible
31 May -1.3 22:00:38 10° WSW 22:02:25 14° SW 22:04:11 10° SSW visible
